This demonstration page uses our WeatherBlox Daily Observations layout. Learn more.

Left ArrowRight Arrow

Hourly Observations for October 18, 2018

Temp ( °F °C ) Dew Point ( °F °C ) Humidity (%) Winds ( mph kmh ) Pressure ( in mb ) Visibility ( mi km ) Precip ( " mm )
12:53 am 00:53 Clear 50 10 38 3.3 63 63 SSW 7 11 30.44 1031 8 13 0.00 0.00
1:53 am 01:53 Clear 49 9.4 37 2.8 64 64 SW 6 9 30.44 1031 9 14 0.00 0.00
2:53 am 02:53 Clear 48 8.9 37 2.8 66 66 SSW 7 11 30.43 1031 9 14 0.00 0.00
3:53 am 03:53 Clear 48 8.9 38 3.3 68 68 SSW 8 13 30.42 1030 9 14 0.00 0.00
4:53 am 04:53 Clear 46 7.8 37 2.8 71 71 S 6 9 30.41 1030 9 14 0.00 0.00
5:53 am 05:53 Clear 47 8.3 38 3.3 71 71 SSW 5 7 30.42 1030 9 14 0.00 0.00
6:53 am 06:53 Clear 45 7.2 38 3.3 77 77 S 6 9 30.42 1030 10 16 0.00 0.00
7:53 am 07:53 Sunny 45 7.2 39 3.9 80 80 S 5 7 30.43 1031 10 16 0.00 0.00
8:53 am 08:53 Sunny 48 8.9 40 4.4 74 74 SSW 5 7 30.43 1030 8 13 0.00 0.00
9:53 am 09:53 Sunny 54 12.2 42 5.6 64 64 SSW 10 17 30.42 1030 9 14 0.00 0.00
10:53 am 10:53 Sunny 61 16.1 43 6.1 52 52 SW 14 22 30.42 1030 8 13 0.00 0.00
11:53 am 11:53 Sunny 63 17.2 42 5.6 47 47 SSW 15 24 30.40 1029 10 16 0.00 0.00
12:53 pm 12:53 Sunny 63 17.2 42 5.6 47 47 SW 16 26 30.37 1028 10 16 0.00 0.00
1:53 pm 13:53 Sunny 66 18.9 41 5 40 40 S 18 30 30.32 1027 10 16 0.00 0.00
2:53 pm 14:53 Mostly Sunny 67 19.4 40 4.4 37 37 SSW 15 24 30.29 1026 10 16 0.00 0.00
3:53 pm 15:53 Sunny 67 19.4 40 4.4 37 37 S 13 20 30.27 1025 10 16 0.00 0.00
4:53 pm 16:53 Mostly Sunny 64 17.8 39 3.9 40 40 S 14 22 30.26 1025 10 16 0.00 0.00
5:53 pm 17:53 Mostly Sunny 64 17.8 40 4.4 41 41 S 16 26 30.23 1024 10 16 0.00 0.00
6:53 pm 18:53 Clear 62 16.7 41 5 46 46 S 10 17 30.22 1023 10 16 0.00 0.00
7:53 pm 19:53 Mostly Cloudy 60 15.6 41 5 50 50 S 12 19 30.22 1023 10 16 0.00 0.00
8:53 pm 20:53 Partly Cloudy 58 14.4 40 4.4 51 51 S 9 15 30.20 1023 10 16 0.00 0.00
9:53 pm 21:53 Cloudy 58 14.4 41 5 53 53 SSW 14 22 30.19 1023 10 16 0.00 0.00
10:53 pm 22:53 Cloudy 57 13.9 41 5 55 55 SSW 12 19 30.16 1021 10 16 0.00 0.00
11:53 pm 23:53 Cloudy with Light Rain 53 11.7 46 7.8 77 77 SW 5 7 30.16 1021 10 16 0.01 0.25

Powered by AerisWeather